Home   Weather   Dietzenbach   Past weeks

Flag for Germany Past Weather in Dietzenbach, Hesse, Germany — Yesterday and Last 2 Weeks

Now
41 °F

Passing clouds.


Feels Like: 37 °F
Forecast: 36 / 42 °F
Wind: 6 mph from Southwest

Location: Frankfurt-M-Flughafen Airport

Current Time: Nov 19, 2017 at 5:58:56 am

Latest Report: Nov 19, 2017 at 5:20 am


Visibility: N/A

Pressure: 29.95 "Hg

Humidity: 93%

Dew Point: 39 °F

Location of DietzenbachLocation

Past Weather in Dietzenbach — Graph

°F

Dietzenbach Temperature Yesterday

Maximum temperature yesterday: 43 °F (at 11:20 am)
Minimum temperature yesterday: 37 °F (at 8:50 am)
Average temperature yesterday: 41 °F

High & Low Weather Summary for the Past Weeks

 TemperatureHumidityPressure
High55 °F (Nov 4, 3:20 pm)100% (Nov 4, 5:50 am)30.36 "Hg (Nov 4, 5:50 am)
Low30 °F (Nov 14, 12:20 am)58% (Nov 14, 3:20 pm)29.50 "Hg (Nov 12, 12:50 pm)
Average42 °F88%30.07 "Hg
* Reported Nov 4 4:20 am — Nov 19 4:50 am, Dietzenbach. Weather by CustomWeather, © 2017

Note: Actual official high and low records may vary slightly from our data, if they occured in-between our weather recording intervals... More about our weather records

Advertising

Dietzenbach Weather History for the Previous 24 Hours

Scroll right to see more
 ConditionsComfort  
Time TempWeatherWind HumidityBarometerVisibility
4:50 am
Sun, Nov 19
41 °FPassing clouds.6 mph93%29.95 "HgN/A
4:20 am41 °FLight rain. Passing clouds.6 mph93%29.95 "HgN/A
3:50 am41 °FLight rain. Overcast.6 mph93%29.95 "HgN/A
3:20 am41 °FMostly cloudy.7 mph93%29.95 "HgN/A
2:50 am41 °FLight rain. Mostly cloudy.7 mph93%29.95 "HgN/A
2:20 am41 °FLight rain. Overcast.6 mph93%29.98 "HgN/A
1:50 am41 °FLight rain. Overcast.7 mph87%29.98 "HgN/A
1:20 am41 °FLight rain. Passing clouds.10 mph87%29.98 "HgN/A
12:50 am41 °FPassing clouds.8 mph87%29.98 "HgN/A
12:20 am41 °FPartly cloudy.10 mph87%30.01 "HgN/A
11:50 pm
Sat, Nov 18
41 °FRain. Mostly cloudy.13 mph87%30.01 "HgN/A
11:20 pm41 °FLight rain. Passing clouds.14 mph81%30.01 "HgN/A
10:50 pm41 °FLight rain. Passing clouds.14 mph81%30.04 "HgN/A
10:20 pm41 °FPartly cloudy.12 mph76%30.04 "HgN/A
9:50 pm41 °FMostly cloudy.12 mph76%30.07 "HgN/A
9:20 pm41 °FMostly cloudy.14 mph76%30.07 "HgN/A
8:50 pm41 °FPassing clouds.13 mph76%30.07 "HgN/A
8:20 pm41 °FPartly cloudy.13 mph70%30.07 "HgN/A
7:50 pm41 °FLight rain. Passing clouds.15 mph70%30.07 "HgN/A
7:20 pm41 °FPassing clouds.13 mph70%30.07 "HgN/A
6:50 pm41 °FPassing clouds.10 mph70%30.09 "HgN/A
6:20 pm43 °FClear.16 mph61%30.09 "Hg10 mi
5:50 pm43 °FPassing clouds.15 mph66%30.09 "HgN/A
5:20 pm43 °FPassing clouds.17 mph66%30.09 "HgN/A
4:50 pm43 °FPassing clouds.17 mph61%30.09 "HgN/A
4:20 pm43 °FBroken clouds.18 mph61%30.09 "HgN/A
3:50 pm43 °FPartly sunny.17 mph61%30.12 "HgN/A
3:20 pm43 °FPartly sunny.13 mph66%30.12 "HgN/A
2:50 pm43 °FPartly sunny.13 mph61%30.12 "HgN/A
2:20 pm43 °FBroken clouds.17 mph61%30.12 "HgN/A
1:50 pm43 °FPartly sunny.24 mph61%30.15 "HgN/A
1:20 pm43 °FPartly sunny.20 mph61%30.15 "HgN/A
12:50 pm43 °FPartly sunny.16 mph61%30.15 "HgN/A
12:20 pm43 °FScattered clouds.14 mph66%30.18 "HgN/A
11:50 am41 °FPartly sunny.9 mph81%30.18 "HgN/A
11:20 am43 °FScattered clouds.7 mph76%30.18 "HgN/A
10:50 am37 °FPassing clouds.8 mph87%30.21 "HgN/A
10:20 am37 °FScattered clouds.9 mph87%30.21 "HgN/A
9:50 am39 °FBroken clouds.7 mph87%30.21 "Hg4 mi
9:20 am37 °FFog.7 mph93%30.21 "Hg3 mi
8:50 am37 °FPartly sunny.7 mph100%30.21 "Hg4 mi
8:20 am39 °FPartly sunny.9 mph93%30.21 "Hg4 mi
7:50 am39 °FPartly sunny.8 mph93%30.21 "Hg4 mi
7:20 am39 °FPassing clouds.7 mph93%30.21 "Hg4 mi
6:50 am39 °FPassing clouds.7 mph93%30.21 "Hg4 mi
6:20 am39 °FFog.3 mph93%30.21 "Hg3 mi
5:50 am39 °FPassing clouds.5 mph100%30.21 "Hg1 mi
5:20 am39 °FFog.5 mph100%30.21 "Hg0 mi
Weather by CustomWeather, © 2017

See weather overview